Back to catalog

SL-14 R/B

AliveLEO
NORAD 15822·ROCKET BODY·🇷🇺 Russia

Launched Jun 14, 1985 from Plesetsk Cosmodrome

Loading…

Next Passes (next 24 hours)

TLE

FreshSource: Space-Track

Epoch: Sep 14, 2026, 04:42 UTC

1 15822U 85047B   26257.19635215 -.00000024  00000-0 -51907-4 0  9990
2 15822  73.6244  46.2695 0025680 283.2723 249.0509 12.41278148869310

Track SL-14 R/B in real time with AllMySat

Download on the App Store